Regional Weather Roundup
Issued by NWS

Home | Current Version | Previous Version | Text Only | Print | Product List | Glossary Off
Versions: 1 2 3 4 5 6 7 8 9 10 11 12 13 14 15 16 17 18 19 20 21 22 23 24 25 26 27 28 29 30 31 32 33 34 35 36 37 38 39 40 41 42 43 44 45 46 47 48 49

000
ASUS43 KDMX 300807
RWRIA

WEATHER ROUNDUP FOR IOWA
NATIONAL WEATHER SERVICE DES MOINES IA
300 AM CDT SUN AUG 30 2015

NOTE: "FAIR" INDICATES FEW OR NO CLOUDS BELOW 12,000 FEET WITH NO
SIGNIFICANT WEATHER AND/OR OBSTRUCTIONS TO VISIBILITY.

* - THESE STATIONS ARE NOT NWS STATIONS...THUS NOT UNDER NWS
QUALITY CONTROL.  THEY ALSO DO NOT REPORT WEATHER SUCH
AS PRECIPITATION OR FOG.

IAZ001>003-012>014-020>022-031>034-043>046-300900-
   NORTHWEST IOWA

CITY           SKY/WX    TMP DP  RH WIND       PRES   REMARKS
CARROLL *      CLOUDY    57  57 100 W3        30.04S FOG
CHEROKEE *     CLOUDY    63  63 100 S9        30.03F
DENISON *      CLOUDY    64  63  94 S5        30.02F
LE MARS *      CLOUDY    64  63  94 S12       30.02F
ORANGE CITY *  CLOUDY    64  63  94 S9        30.02F
SHELDON *      CLOUDY    63  61  94 S9G15     30.01S
SPENCER        CLOUDY    61  59  93 S10       30.03S
STORM LAKE *   CLOUDY    61  61 100 S10       30.05S
$$

IAZ055>058-069>071-079>083-090>094-300900-
   SOUTHWEST IOWA

CITY           SKY/WX    TMP DP  RH WIND       PRES   REMARKS
ATLANTIC *     CLOUDY    63  63 100 CALM      30.04F
AUDUBON *      CLOUDY    59  57  94 CALM      30.05F
CLARINDA *     FOG       59  59 100 CALM      30.06S VSB 1/2
COUNCIL BLFS *   N/A     63  61  94 S7        30.04F
CRESTON *      FOG       59  59 100 CALM      30.06F VSB 0
HARLAN  *      CLOUDY    64 N/A N/A S3        30.07F
LAMONI         FOG       66  65  96 CALM      30.04F VSB 1/4
RED OAK *      FOG       61  61 100 CALM      30.05S VSB 0
SHENANDOAH *   FOG       59  59 100 W3        30.05S VSB 1/2
$$

IAZ047>049-059>061-072>074-084-300900-
   CENTRAL IOWA

CITY           SKY/WX    TMP DP  RH WIND       PRES   REMARKS
AMES           FOG       57  57 100 S5        30.03F VSB 1/2
ANKENY *       PTCLDY    57  57 100 CALM      30.03F FOG
CHARITON *     FOG       61  61 100 E5        30.04S VSB 1/4
DES MOINES     PTCLDY    63  59  87 CALM      30.03F
GRINNELL*      CLOUDY    63  61  94 E5        30.04F
KNOXVILLE *    PTCLDY    63  63 100 CALM      30.02F FOG
MARSHALLTOWN   FOG       57  57 100 CALM      30.03F VSB 1/4
PELLA *        CLOUDY    63  63 100 CALM      30.05F FOG
PERRY *        FOG       59  59 100 CALM      30.04S VSB 1/4
$$

IAZ004>006-015-016-023>025-035-036-300900-
   NORTH CENTRAL IOWA

CITY           SKY/WX    TMP DP  RH WIND       PRES   REMARKS
ALGONA *       CLOUDY    61  61 100 SW7       30.03F
CLARION *      CLEAR     57  57 100 CALM      30.04S FOG
ESTHERVILLE    CLOUDY    61  60  97 S9        30.02F
FORT DODGE *   MOCLDY    63  59  88 SE3       30.04F
MASON CITY     FOG       56  56 100 S5        30.05S VSB 1/4
FOREST CITY *  FOG       54  54 100 SE3       30.03F VSB 3/4
IOWA FALLS *     N/A     61  61 100 CALM      30.05S
$$

IAZ007>011-017>019-026>030-037>042-050>054-066-300900-
   NORTHEAST IOWA

CITY           SKY/WX    TMP DP  RH WIND       PRES   REMARKS
CEDAR RAPIDS   FOG       57  57 100 CALM      30.03F VSB 3/4
CHARLES CITY * CLEAR     57  57 100 CALM      30.05S FOG
CLINTON *      CLEAR     61  59  94 NE6       30.06S
DECORAH *      CLOUDY    61  59  94 CALM      30.04S
DUBUQUE        CLEAR     60  57  89 E3        30.05F
MONTICELLO *   FOG       57  57 100 CALM      30.04S VSB<1/4
OELWEIN *      FOG       55  55 100 CALM      30.05S VSB 1/4
WATERLOO       PTCLDY    56  55  97 E3        30.03S
$$

IAZ064-065-067-068-078-300900-
   EAST CENTRAL IOWA

CITY           SKY/WX    TMP DP  RH WIND       PRES   REMARKS
DAVENPORT      FOG       60  59  96 E3        30.04S VSB 1/4
IOWA CITY      CLOUDY    66  65  96 CALM      30.05S
MT. PLEASANT * DRZL/FOG  64  63  94 CALM      30.03S VSB 1/4
MUSCATINE *    FOG       63  63 100 CALM      30.04S VSB 0
QUAD CITIES    FOG       60  59  96 CALM      30.03F VSB 1/4
$$

IAZ062-063-075>077-085>089-095>099-300900-
   SOUTHEAST IOWA

CITY           SKY/WX    TMP DP  RH WIND       PRES   REMARKS
BURLINGTON     CLOUDY    68  68 100 NE8       30.02F FOG
FAIRFIELD *    FOG       66  64  94 CALM      30.04S VSB 0
FORT MADISON * FOG       66  66 100 NE3       30.03S VSB 1/4
KEOKUK *       FOG       68  68 100 CALM      30.02S VSB 1/4
OSKALOOSA *    FOG       63  63 100 CALM      30.05S VSB 1/4
CENTERVILLE *  FOG       63  63 100 NE6       30.05F VSB 3/4
OTTUMWA        FOG       65  65 100 N3        30.02F VSB 1/4
WASHINGTON *     N/A    N/A N/A N/A MISG        N/A
$$

ABBREVIATIONS USED IN REMARKS
   TC - TEMPERATURES IN CELSIUS
  WCI - WIND CHILL INDEX
   HX - HEAT INDEX
  VSB - VISIBILITY
$$




USA.gov is the U.S. government's official web portal to all federal, state and local government web resources and services.